sat.trackr.live / text

‹ back to catalog

STARLINK-4380

NORAD 53650 · 2022-105C

PAYLOAD ACTIVE UNKNOWN

§ Identity

Operator
Country
US
Launch date
2022-08-31
Launch site
AFWTR
Launch vehicle
Mass (kg)
RCS (m²)

Purposes: comms

External: N2YO · Heavens-Above · Gunter

§ Orbital elements

Epoch: 2026-09-20T22:04:45.239520Z

Period
95.64 min
Inclination
97.2857°
Eccentricity
0.0002028
Mean motion
15.05654490 rev/d
Perigee alt
548.1 km
Apogee alt
550.9 km
Semi-major
6,927.6 km
B*
3.9896e-5
RAAN
137.7161°
Arg perigee
85.8944°
Mean anomaly
274.2515°
Rev number
22,260

§ Raw data

STARLINK-43801 53650U 22105C   26263.91996805  .00000519  00000+0  39896-4 0  99982 53650  97.2857 137.7161 0002028  85.8944 274.2515 15.05654490222602

JSON: /api/v1/satellites/53650 · /tle

For live sub-satellite position, see the globe view (requires WebGL).

§ Visibility from observer

Set your observer location to see the next 7 days of passes ≥ 10°. The values pass through the URL so the page stays shareable.

No JS? Fill the form by hand. The geolocation button needs JavaScript.